When you browse on this site, cookies collect data to enhance your experience and personalize the content and advertising you see.
Visit our Privacy Policy to learn more. By continuing to use the site, you agree to this use of cookies and data.
  • In Hungary
  • List of Countries
  • For 7 days
  • Water Temperature
  • Satellite Maps
  • Weather Map
  • News
  • Weather Widgets
  • user-avatar
    Login

    Hourly Weather Chudey

    Today, 16 July, Tuesday

    Time Temperature Precipitation Wind Pressure Humidity
    00:00 +14°C° 0 mm 2 mps 720 mmHg 92%
    01:00 +14°C° 0 mm 2 mps 720 mmHg 96%
    02:00 +13°C° 0 mm 3 mps 720 mmHg 97%
    03:00 +13°C° 0 mm 2 mps 720 mmHg 98%
    04:00 +13°C° 0 mm 2 mps 720 mmHg 99%
    05:00 +13°C° 0 mm 2 mps 720 mmHg 98%
    06:00 +14°C° 0 mm 2 mps 720 mmHg 98%
    07:00 +14°C° 0 mm 3 mps 720 mmHg 96%
    08:00 +17°C° 0 mm 3 mps 720 mmHg 93%
    09:00 +17°C° 0 mm 3 mps 721 mmHg 91%
    10:00 +18°C° 0 mm 3 mps 721 mmHg 89%
    11:00 +19°C° 0 mm 3 mps 721 mmHg 88%
    12:00 +20°C° 0 mm 3 mps 721 mmHg 83%
    13:00 +20°C° 0 mm 3 mps 720 mmHg 81%
    14:00 +21°C° 0 mm 3 mps 720 mmHg 79%
    15:00 +21°C° 0 mm 2 mps 720 mmHg 77%
    16:00 +21°C° 0 mm 2 mps 719 mmHg 79%
    17:00 +21°C° 0.1 mm 2 mps 719 mmHg 80%
    18:00 +18°C° 6 mm 4 mps 719 mmHg 96%
    19:00 +18°C° 4.3 mm 2 mps 719 mmHg 94%
    20:00 +17°C° 0 mm 0 mps 719 mmHg 96%
    21:00 +19°C° 0 mm 1 mps 719 mmHg 92%
    22:00 +19°C° 0 mm 1 mps 719 mmHg 93%
    23:00 +18°C° 0 mm 1 mps 719 mmHg 93%

    Tomorrow, 17 July, Wednesday

    Time Temperature Precipitation Wind Pressure Humidity
    00:00 +17°C° 0 mm 2 mps 719 mmHg 90%
    01:00 +16°C° 0 mm 2 mps 718 mmHg 90%
    02:00 +14°C° 0 mm 3 mps 718 mmHg 89%
    03:00 +14°C° 0 mm 5 mps 719 mmHg 98%
    04:00 +14°C° 0 mm 3 mps 718 mmHg 98%
    05:00 +14°C° 0 mm 2 mps 718 mmHg 96%
    06:00 +14°C° 0 mm 3 mps 718 mmHg 97%
    07:00 +16°C° 0 mm 3 mps 719 mmHg 93%
    08:00 +17°C° 0 mm 4 mps 719 mmHg 93%
    09:00 +17°C° 0 mm 4 mps 719 mmHg 96%
    10:00 +17°C° 0 mm 4 mps 720 mmHg 95%
    11:00 +18°C° 0 mm 4 mps 720 mmHg 89%
    12:00 +19°C° 0 mm 3 mps 720 mmHg 86%
    13:00 +19°C° 0 mm 3 mps 719 mmHg 84%
    14:00 +20°C° 0 mm 4 mps 719 mmHg 82%
    15:00 +20°C° 0 mm 2 mps 719 mmHg 84%
    16:00 +20°C° 0 mm 1 mps 719 mmHg 87%
    17:00 +21°C° 0 mm 1 mps 719 mmHg 86%
    18:00 +21°C° 0 mm 1 mps 718 mmHg 85%
    19:00 +21°C° 0 mm 1 mps 719 mmHg 87%
    20:00 +19°C° 0.6 mm 2 mps 719 mmHg 95%
    21:00 +17°C° 1.3 mm 0 mps 719 mmHg 95%
    22:00 +19°C° 0 mm 1 mps 719 mmHg 96%
    23:00 +18°C° 0 mm 1 mps 720 mmHg 95%

    Day after tomorrow, 18 July, Thursday

    Time Temperature Precipitation Wind Pressure Humidity
    00:00 +18°C° 0 mm 1 mps 720 mmHg 94%
    01:00 +16°C° 0 mm 1 mps 720 mmHg 94%
    02:00 +16°C° 0 mm 2 mps 720 mmHg 95%
    03:00 +15°C° 0 mm 2 mps 720 mmHg 95%
    04:00 +14°C° 0 mm 2 mps 719 mmHg 94%
    05:00 +14°C° 0 mm 2 mps 720 mmHg 94%
    06:00 +14°C° 0 mm 2 mps 720 mmHg 96%
    07:00 +14°C° 0 mm 3 mps 720 mmHg 95%
    08:00 +15°C° 0 mm 4 mps 721 mmHg 94%
    09:00 +17°C° 0 mm 3 mps 721 mmHg 93%
    10:00 +18°C° 0 mm 2 mps 721 mmHg 93%
    11:00 +18°C° 0 mm 3 mps 721 mmHg 92%
    12:00 +19°C° 0 mm 3 mps 722 mmHg 88%
    13:00 +20°C° 0 mm 3 mps 722 mmHg 86%
    14:00 +20°C° 0 mm 3 mps 721 mmHg 84%
    15:00 +20°C° 0 mm 3 mps 722 mmHg 84%
    16:00 +20°C° 0.1 mm 2 mps 721 mmHg 87%
    17:00 +20°C° 0.4 mm 1 mps 722 mmHg 89%
    18:00 +20°C° 0.2 mm 1 mps 722 mmHg 93%
    19:00 +20°C° 0 mm 1 mps 722 mmHg 90%
    20:00 +17°C° 0 mm 0 mps 722 mmHg 95%
    21:00 +19°C° 0 mm 1 mps 722 mmHg 97%
    22:00 +18°C° 0 mm 1 mps 722 mmHg 98%
    23:00 +18°C° 0 mm 1 mps 723 mmHg 97%

    19 July, Friday

    Time Temperature Precipitation Wind Pressure Humidity
    00:00 +18°C° 0 mm 1 mps 723 mmHg 94%
    01:00 +18°C° 0 mm 1 mps 723 mmHg 95%
    02:00 +18°C° 0 mm 1 mps 723 mmHg 96%
    03:00 +18°C° 0 mm 1 mps 723 mmHg 96%
    04:00 +18°C° 0 mm 1 mps 723 mmHg 97%
    05:00 +16°C° 0 mm 1 mps 723 mmHg 96%
    06:00 +16°C° 0 mm 1 mps 722 mmHg 96%
    07:00 +17°C° 0 mm 2 mps 723 mmHg 94%
    08:00 +18°C° 0 mm 2 mps 723 mmHg 93%
    09:00 +20°C° 0 mm 3 mps 723 mmHg 91%
    10:00 +21°C° 0 mm 3 mps 724 mmHg 91%
    11:00 +22°C° 0 mm 3 mps 724 mmHg 91%
    12:00 +22°C° 0 mm 3 mps 723 mmHg 90%
    13:00 +24°C° 0 mm 3 mps 723 mmHg 88%
    14:00 +22°C° 0.2 mm 3 mps 723 mmHg 87%

    20 July, Saturday

    Time Temperature Precipitation Wind Pressure Humidity

    21 July, Sunday

    Time Temperature Precipitation Wind Pressure Humidity
    Show more